SEDSat Delta rocket - Orbit

View from above orbital plane
View from above orbital plane
View from above satellite
View from above satellite

Ground track
Ground track

The orbit data is extracted from the following two-line orbital elements,

1 25510U 98061C   13138.17662946  .00000706  00000-0  11485-3 0  5995
2 25510 031.4378 039.6727 0336964 197.6287 293.9929 14.34795724762796
Epoch (UTC): 18 May 2013 04:14:20
Eccentricity: 0.0336964
inclination: 31.4378°
perigee height: 534 km
apogee height: 1017 km
right ascension of ascending node: 39.6727°
argument of perigee: 197.6287°
revolutions per day: 14.34795724
mean anomaly at epoch: 293.9929°
orbit number at epoch: 76279

The dashed part of the orbit path shows where the satellite is in the earth's shadow,  

Developed and maintained by Chris Peat, Heavens-Above GmbH. Please read the updated FAQ before sending e-mail. Imprint. DLR